Flag Weather past 2 weeks in Bamenda, Cameroon

Now
84 °F

Partly sunny.


Feels Like: 94 °F
Forecast: 55 / 84 °F
Wind: No wind

Location: Douala Obs.

Current Time: Nov 28, 2014 at 10:50:01 AM

Latest Report: Nov 28, 2014 at 10:00 AM


Visibility: 4 mi

Pressure: 29.89 "Hg

Humidity: 79%

Dew point: 77 °F

Location of BamendaLocation

Historic Weather in Bamenda — Graph

°F

Bamenda temperature yesterday

Maximum temperature yesterday: 90 °F (at 2:00 PM)
Minimum temperature yesterday: 77 °F (at 1:00 AM)
Average temperature yesterday: 82 °F

Past Weeks' High & Low Weather Summary

 TemperatureHumidityPressure
High91 °F (Nov 21, 2:00 PM)100% (Nov 14, 3:00 AM)29.95 "Hg (Nov 14, 3:00 AM)
Low72 °F (Nov 18, 3:00 AM)52% (Nov 18, 2:00 PM)29.74 "Hg (Nov 15, 3:00 PM)
Average81 °F88%29.85 "Hg
* Reported Nov 13 9:00 AM — Nov 28 9:00 AM, Bamenda, Weather by CustomWeather, © 2014

Note: Actual official high and low records may vary slightly from our data, if they occured in-between our weather recording intervals... More about our weather records

Advertising

Bamenda weather history for previous 24 hours

 ConditionsComfort  
Time TempWeatherWind HumidityBarometerVisibility
9:00 AM
Nov 28
81 °FPartly sunny.No wind89%29.89 "Hg4 mi
8:00 AM79 °FPartly sunny.No wind94%29.89 "Hg4 mi
7:00 AM77 °FFog.No wind94%29.86 "Hg2 mi
6:00 AM77 °FThunderstorms. Passing clouds.No wind94%29.86 "Hg4 mi
5:00 AM77 °FThunderstorms. Passing clouds.No wind94%29.86 "HgN/A
4:00 AM77 °FThunderstorms. Passing clouds.No wind100%29.83 "HgN/A
3:00 AM77 °FThunderstorms. Passing clouds.No wind100%29.86 "HgN/A
2:00 AM77 °FThunderstorms. Passing clouds.No wind100%29.86 "HgN/A
1:00 AM77 °FThunderstorms. Passing clouds.No wind94%29.86 "Hg5 mi
12:00 AM77 °FThunderstorms. Passing clouds.No wind94%29.86 "HgN/A
11:00 PM
Nov 27
77 °FThunderstorms. Passing clouds.No wind94%29.86 "HgN/A
10:00 PM79 °FThunderstorms. Passing clouds.7 mph89%29.86 "Hg5 mi
9:00 PM81 °FThunderstorms. Passing clouds.No wind94%29.86 "Hg4 mi
8:00 PM82 °FPartly cloudy.No wind89%29.83 "HgN/A
7:00 PM82 °FPassing clouds.3 mph84%29.80 "HgN/A
6:00 PM84 °FThunderstorms. Scattered clouds.5 mph79%29.77 "HgN/A
5:00 PM84 °FScattered clouds.7 mph79%29.77 "HgN/A
4:00 PM88 °FScattered clouds.9 mph70%29.77 "HgN/A
3:00 PM90 °FScattered clouds.9 mph67%29.80 "HgN/A
2:00 PM90 °FPartly sunny.9 mph67%29.83 "HgN/A
1:00 PM88 °FPartly sunny.5 mph70%29.86 "HgN/A
12:00 PM88 °FPartly sunny.No wind70%29.86 "HgN/A
11:00 AM86 °FPartly sunny.No wind75%29.89 "HgN/A
10:00 AM84 °FPartly sunny.5 mph79%29.89 "HgN/A
Weather by CustomWeather, © 2014

See weather overviewHow to use our weather pages